Location: Ellerstadt
(49.4644°N, 8.2615°E)
Time: 11:13:47
(UTC+00:00)

IRIDIUM 100 - Pass Details

Date: 25 September 2021
Orbit: 776 x 779 km, 86.4° (Epoch: 18 October)

Event Time Altitude Azimuth Distance (km) Brightness Sun altitude
Exits shadow 02:28:25 18° 322° (NW) 1,826 ? -26.8°
Drops below altitude 10° 02:30:24 10° 341° (NNW) 2,342 ? -26.6°
Sets 02:33:13 0° 355° (N) 3,274 ? -26.2°
